Location: Unspecified
(17.6330°N, 0.0000°E)
Time: 11:14:08
(UTC+00:00)

N. Korean satellite - Pass Details

Date: 05 November 2020
Orbit: 452 x 504 km, 97.2° (Epoch: 28 November)

Event Time Altitude Azimuth Distance (km) Brightness Sun altitude
Rises 04:42:38 0° 29° (NNE) 2,470 10.4 -18.9°
Reaches altitude 10° 04:44:57 10° 45° (NE) 1,602 9.6 -18.3°
Maximum altitude 04:47:44 23° 99° (E) 1,032 9.1 -17.7°
Drops below altitude 10° 04:50:32 10° 153° (SSE) 1,619 9.7 -17.0°
Sets 04:52:53 0° 168° (SSE) 2,504 10.5 -16.5°
